Weather History for Buffalo, WY

Change the Weather History Date:

Thursday, April 4, 2013

  Actual Average Record
Temperature  
Mean Temperature 50 °F 40 °F  
Max Temperature 64 °F 51 °F 73 °F (2000)
Min Temperature 35 °F 28 °F 14 °F (1999)
Degree Days  
Heating Degree Days 15 25  
Month to date heating degree days 75 103  
Since 1 July heating degree days 5959 6293  
Cooling Degree Days 0 0  
Month to date cooling degree days 0 0  
Year to date cooling degree days 0 0  
Moisture  
Dew Point 29 °F    
Average Humidity 49    
Maximum Humidity 70    
Minimum Humidity 27    
Precipitation  
Precipitation 0.00 in 0.03 in 0.05 in (2003)
Month to date precipitation 0.00 0.11  
Year to date precipitation 0.69 1.80  
Sea Level Pressure  
Sea Level Pressure 29.94 in    
Wind  
Wind Speed 6 mph (SW)    
Max Wind Speed 20 mph    
Max Gust Speed 25 mph    
Visibility 10 miles    
Events      
T = Trace of Precipitation, MM = Missing Value Source: NWS Daily Summary

Daily Weather History Graph

Daily Weather History Graph

Search for Another Location

Airport:

Trip Planner

Search our weather history database for the weather conditions in past years. The results will help you decide how hot, cold, wet, or windy it might be!

Date:

Astronomy

Apr. 04, 2013 Rise Set
Actual Time 6:41 AM MDT 7:38 PM MDT
Civil Twilight 6:12 AM MDT 8:07 PM MDT
Nautical Twilight 5:37 AM MDT 8:43 PM MDT
Astronomical Twilight 5:00 AM MDT 9:20 PM MDT
Moon 3:23 AM MDT (4/4) 1:47 PM MDT (4/4)
Length of Visible Light 13h 55m
Length of Day
12h 56m
Waning Crescent, 33% of the Moon is Illuminated
Apr 4
Waning Crescent
Apr 10
New
Apr 18
First Quarter
Apr 25
Full
May 2
Last Quarter

Hourly Weather History & Observations

Time (MDT) Temp. Windchill Dew Point Humidity Pressure Visibility Wind Dir Wind Speed Gust Speed Precip Events Conditions
12:53 AM 37.0 °F 32.4 °F 27.0 °F 67% 30.07 in 10.0 mi SSE 5.8 mph - N/A   Clear
1:53 AM 37.9 °F 30.0 °F 28.9 °F 70% 30.03 in 10.0 mi South 12.7 mph - N/A   Mostly Cloudy
2:53 AM 39.0 °F 31.0 °F 28.9 °F 67% 30.01 in 10.0 mi SSE 13.8 mph - N/A   Mostly Cloudy
3:53 AM 42.1 °F 34.2 °F 28.9 °F 60% 29.99 in 10.0 mi South 16.1 mph - N/A   Mostly Cloudy
4:53 AM 45.0 °F 41.8 °F 27.0 °F 49% 29.98 in 10.0 mi SSW 5.8 mph - N/A   Overcast
5:53 AM 37.0 °F - 25.0 °F 62% 29.99 in 10.0 mi Calm Calm - N/A   Clear
6:53 AM 43.0 °F 41.3 °F 24.1 °F 47% 29.99 in 10.0 mi SW 3.5 mph - N/A   Mostly Cloudy
7:53 AM 48.9 °F - 27.0 °F 43% 29.99 in 10.0 mi WSW 6.9 mph - N/A   Overcast
8:53 AM 51.1 °F - 30.9 °F 46% 29.99 in 10.0 mi Calm Calm - N/A   Overcast
9:53 AM 53.1 °F - 30.0 °F 41% 29.99 in 10.0 mi North 10.4 mph - N/A   Mostly Cloudy
10:53 AM 50.0 °F - 30.0 °F 46% 30.01 in 10.0 mi NNW 4.6 mph - N/A   Clear
11:53 AM 57.0 °F - 30.0 °F 36% 30.00 in 10.0 mi NNW 9.2 mph - N/A   Clear
12:53 PM 59.0 °F - 28.0 °F 31% 29.98 in 10.0 mi Variable 4.6 mph - N/A   Clear
1:53 PM 59.0 °F - 30.9 °F 35% 29.96 in 10.0 mi North 10.4 mph 25.3 mph N/A   Clear
2:53 PM 60.1 °F - 30.9 °F 33% 29.93 in 10.0 mi Variable 5.8 mph - N/A   Clear
3:53 PM 63.0 °F - 32.0 °F 31% 29.90 in 10.0 mi North 8.1 mph - N/A   Clear
4:53 PM 63.0 °F - 28.9 °F 28% 29.87 in 10.0 mi East 6.9 mph - N/A   Clear
5:53 PM 61.0 °F - 28.9 °F 30% 29.88 in 10.0 mi Calm Calm - N/A   Clear
6:53 PM 60.1 °F - 30.0 °F 32% 29.86 in 10.0 mi Calm Calm - N/A   Clear
7:53 PM 57.9 °F - 28.9 °F 33% 29.82 in 10.0 mi Calm Calm - N/A   Clear
8:53 PM 54.0 °F - 30.0 °F 40% 29.83 in 10.0 mi Calm Calm - N/A   Clear
9:53 PM 53.1 °F - 30.0 °F 41% 29.82 in 10.0 mi Calm Calm - N/A   Clear
10:53 PM 48.9 °F - 32.0 °F 52% 29.83 in 10.0 mi WSW 5.8 mph - N/A   Scattered Clouds
11:53 PM 52.0 °F - 32.0 °F 47% 29.78 in 10.0 mi SW 6.9 mph - N/A   Overcast